Location: Atlantic Beach
(40.5890°N, 73.7290°W)
Time: 04:08:25
(UTC+00:00)

Cosmos 1315 Rocket - Pass Details

Date: 29 October 2020
Orbit: 530 x 567 km, 81.2° (Epoch: 23 November)

Event Time Altitude Azimuth Distance (km) Brightness Sun altitude
Rises 22:26:04 0° 152° (SSE) 2,673 6.2 -6.6°
Reaches altitude 10° 22:28:41 10° 134° (SE) 1,794 5.1 -7.1°
Maximum altitude 22:31:27 19° 89° (E) 1,341 4.2 -7.6°
Drops below altitude 10° 22:34:17 10° 44° (NE) 1,820 5.0 -8.2°
Sets 22:36:57 0° 27° (NNE) 2,726 6.0 -8.6°
